Regional Weather Roundup
Issued by NWS Sioux Falls, SD

Home | Current Version | Previous Version | Text Only | Print | Product List | Glossary Off
Versions: 1 2 3 4 5 6 7 8 9 10 11 12 13 14 15 16 17 18 19 20 21 22 23 24 25 26 27 28 29 30 31 32 33 34 35 36 37 38 39 40 41 42 43 44 45 46 47 48 49 50

000
ASUS43 KFSD 271710
RWRFSD

WEATHER ROUNDUP FOR SE SOUTH DAKOTA/SW MINNESOTA/NW IOWA
NATIONAL WEATHER SERVICE SIOUX FALLS SD
1200 PM CDT WED MAY 27 2015

NOTE: "FAIR" INDICATES FEW OR NO CLOUDS BELOW 12,000 FEET WITH NO
SIGNIFICANT WEATHER AND OR OBSTRUCTIONS TO VISIBILITY.


SDZ038>040-050-052>070-271800-
SOUTHEAST SOUTH DAKOTA

CITY           SKY/WX    TMP DP  RH WIND       PRES   REMARKS
BROOKINGS      SUNNY     75  52  43 NW9       30.02R
CHAMBERLAIN    MOSUNNY   76  51  41 S9        30.03S
HURON          SUNNY     78  52  40 N3        30.01R
MADISON        FAIR      77  48  36 W7        30.03S
MITCHELL       SUNNY     79  54  41 SW8       30.03R
SIOUX FALLS    MOSUNNY   79  53  40 NW7       30.02R
WINNER         FAIR      77  50  38 S14       30.04S
YANKTON        SUNNY     75  54  46 CALM      30.03S
$$

MNZ071-072-080-081-089-090-097-098-271800-
SOUTHWEST MINNESOTA

CITY           SKY/WX    TMP DP  RH WIND       PRES   REMARKS
FAIRMONT       SUNNY     75  54  46 W8        29.99S
JACKSON        SUNNY     75  55  50 W10       30.01R
LUVERNE        SUNNY     77  54  44 W10       30.02S
MARSHALL       SUNNY     77  52  41 NW10G16   29.98R
MONTEVIDEO     SUNNY     77  57  50 NW6       29.98R
REDWOOD FALLS  SUNNY     76  57  51 W12       29.97R
TRACY          SUNNY     77  54  45 W7        30.00R
WINDOM         SUNNY     77  57  50 W7        30.01R
WORTHINGTON    SUNNY     75  54  46 W10       30.02R
$$

IAZ001>003-012>014-020>022-031-032-NEZ013-014-SDZ071-271800-
NORTHWEST IOWA

CITY           SKY/WX    TMP DP  RH WIND       PRES   REMARKS
CHEROKEE       SUNNY     75  58  55 NW7       30.04R
DENISON        SUNNY     75  59  57 VRB6      30.04S
ESTHERVILLE    SUNNY     75  58  55 W9        30.01R
LE MARS        SUNNY     77  54  44 W6        30.05R
ORANGE CITY    SUNNY     73  55  53 W8        30.04S
SHELDON        SUNNY     75  73  94 W12       30.02R
SIOUX CITY     SUNNY     78  56  46 CALM      30.05R
SPENCER        SUNNY     77  58  51 W14G22    30.02R
STORM LAKE     SUNNY     73  57  56 W13       30.06R
$$

ABBREVIATIONS USED IN REMARKS
   TC - TEMPERATURE IN CELSIUS
  WCI - WIND CHILL INDEX
   HX - HEAT INDEX
  VSB - VISIBILITY



USA.gov is the U.S. government's official web portal to all federal, state and local government web resources and services.